This demonstration page uses our WeatherBlox Daily Observations layout. Learn more.

Left ArrowRight Arrow

38.88101, -77.10428

Hourly Observations for December 5, 2020

Temp ( °F °C ) Dew Point ( °F °C ) Humidity (%) Winds ( mph kmh ) Pressure ( in mb ) Visibility ( mi km ) Precip ( " mm )
12:50 am 00:50 Cloudy with Light Rain 48 9 46 8 94 94 NNE 6 9 29.78 1009 6 10 0.06 1.52
12:52 am 00:52 Cloudy with Light Rain 47 8.3 46 7.8 97 97 NNE 7 11 29.77 1008 5 8 0.06 1.52
1:04 am 01:04 Cloudy with Light Rain 47 8.3 46 7.8 97 97 NNE 3 6 29.78 1009 4 6 0.02 0.51
1:52 am 01:52 Cloudy with Rain 47 8.3 46 7.8 97 97 NNE 10 17 29.75 1008 4 6 0.16 4.06
2:22 am 02:22 Cloudy with Rain 47 8.3 45 7.2 93 93 N 14 22 29.74 1007 5 8 0.10 2.54
2:38 am 02:38 Cloudy with Rain 47 8.3 45 7.2 93 93 N 13 20 29.72 1006 5 8 0.16 4.06
2:52 am 02:52 Cloudy with Rain 47 8.3 45 7.2 93 93 N 14 22 29.71 1006 5 8 0.22 5.59
3:52 am 03:52 Cloudy with Rain 47 8.3 45 7.2 93 93 NNW 10 17 29.75 1007 5 8 0.19 4.83
4:14 am 04:14 Cloudy with Rain 47 8.3 44 6.7 90 90 NNW 12 19 29.74 1007 5 8 0.07 1.78
4:52 am 04:52 Cloudy with Light Rain 46 7.8 44 6.7 93 93 NNW 16 26 29.74 1007 8 13 0.17 4.32
5:24 am 05:24 Cloudy with Light Rain 46 7.8 43 6.1 89 89 NNW 20 31 29.75 1008 9 14 0.03 0.76
5:52 am 05:52 Cloudy 46 7.8 42 5.6 86 86 NNW 18 30 29.76 1008 10 16 0.03 0.76
6:24 am 06:24 Cloudy 46 7.8 42 5.6 86 86 NW 15 24 29.77 1008 10 16 0.00 0.00
6:52 am 06:52 Cloudy 46 7.8 42 5.6 86 86 NW 17 28 29.78 1009 10 16 0.00 0.00
7:15 am 07:15 Cloudy 46 7.8 40 4.4 79 79 NW 17 28 29.80 1009 10 16 0.00 0.00
7:52 am 07:52 Mostly Cloudy 46 7.8 37 2.8 71 71 NW 17 28 29.81 1010 10 16 0.00 0.00
8:52 am 08:52 Mostly Cloudy 46 7.8 37 2.8 71 71 NW 16 26 29.83 1010 10 16 0.00 0.00
9:52 am 09:52 Partly Cloudy 48 8.9 37 2.8 66 66 NW 18 30 29.85 1011 10 16 0.00 0.00
10:52 am 10:52 Mostly Cloudy 48 8.9 37 2.8 66 66 NW 17 28 29.87 1011 10 16 0.00 0.00
11:52 am 11:52 Mostly Cloudy 49 9.4 34 1.1 56 56 NW 17 28 29.86 1011 10 16 0.00 0.00
12:52 pm 12:52 Mostly Cloudy 48 8.9 30 -1.1 50 50 NW 18 30 29.86 1011 10 16 0.00 0.00
1:52 pm 13:52 Mostly Cloudy 47 8.3 28 -2.2 48 48 NNW 22 35 29.87 1012 10 16 0.00 0.00
2:52 pm 14:52 Mostly Cloudy 48 8.9 26 -3.3 42 42 NW 28 44 29.88 1012 10 16 0.00 0.00
3:52 pm 15:52 Mostly Cloudy 46 7.8 25 -3.9 44 44 NNW 21 33 29.90 1012 10 16 0.00 0.00
4:52 pm 16:52 Cloudy 46 7.8 26 -3.3 46 46 NW 17 28 29.92 1013 10 16 0.00 0.00
5:52 pm 17:52 Cloudy 46 7.8 28 -2.2 50 50 NNW 13 20 29.94 1014 10 16 0.00 0.00
6:52 pm 18:52 Cloudy 45 7.2 29 -1.7 54 54 NW 14 22 29.96 1015 10 16 0.00 0.00
7:52 pm 19:52 Cloudy 45 7.2 28 -2.2 52 52 NW 14 22 29.96 1015 10 16 0.00 0.00
8:52 pm 20:52 Cloudy 45 7.2 27 -2.8 49 49 NW 13 20 29.97 1015 10 16 0.00 0.00
9:52 pm 21:52 Cloudy 44 6.7 27 -2.8 51 51 NW 13 20 29.97 1015 10 16 0.00 0.00
10:52 pm 22:52 Cloudy 44 6.7 27 -2.8 51 51 WNW 16 26 29.97 1015 10 16 0.00 0.00
11:52 pm 23:52 Cloudy 43 6.1 27 -2.8 53 53 NW 10 17 29.97 1015 10 16 0.00 0.00

Powered by AerisWeather